User: anonymous   Login
Location: Unspecified
(0.0000°N, 0.0000°E)
Time: 11:16:25
(UTC+00:00)
Language:

P76-5 - Orbit

View from above orbital plane
View from above orbital plane
View from above satellite
View from above satellite

Ground track
Ground track

The orbit data is extracted from the following two-line orbital elements,

1  8860U 76047A   17148.90846170 +.00000005 +00000-0 +58569-4 0  9994
2  8860 099.6726 258.1722 0043022 138.9083 358.6065 13.67547276044394
Epoch (UTC): 28 May 2017 21:48:11
Eccentricity: 0.0043022
inclination: 99.6726°
perigee height: 976 km
apogee height: 1040 km
right ascension of ascending node: 258.1722°
argument of perigee: 138.9083°
revolutions per day: 13.67547276
mean anomaly at epoch: 358.6065°
orbit number at epoch: 4439

The dashed part of the orbit path shows where the satellite is in the earth's shadow,  

DLR